COSMOS 1275 DEB, 12698

Orbit data source: Space-Track

COSMOS 1275 DEB, 12698 is space debris in LEO originally from a launch on Thu, 04 Jun 1981 UTC launched from the Plesetsk Missile And Space Complex (PKMTR). Debris objects in space refer to the collection of defunct objects orbiting the Earth. Examples of debris include non-operational satellites, rocket bodies, and fragments generated from explosions, collisions, or faulty payload assembly.

Loading next visibility...
Identifier
12698, 1981-053AS
Orbit
LEO
Country
Flag of CISCIS
Related business
Manufacturer
Unknown
Mission
Spacecraft
Bus & Motor
Unknown
Mass
Unknown
Launch date (UTC)
1981-06-04 (45 years ago)
Launch vehicle
Unknown
Launch site
Plesetsk Missile And Space Complex (PKMTR)
Object type
Payload
Rocket body
Debris
Shape & HBR
Unknown shape, 0.1 m
Radar Cross Section
Small (<0.1 m²)

Expand to show TLE details & history
Last TLE update: 1 day ago

TLE from 1 day ago
0 COSMOS 1275 DEB
1 12698U 81053AS  26094.50019636  .00006173  00000-0  21760-2 0  9999
2 12698  82.8951 111.3969 0006517 218.0769 141.9961 14.34658578280926
Epoch: 2026-04-04T12:00Z
TLE epoch observation values (Epoch: 2026-04-04T12:00:16.965Z)
Latitude
0.00003°
Longitude
98.50714°
Altitude
782.859 km
Speed
7.46 km/s
True Right ascension
07h 25m 35s
True Declination
0° 00' 00"
Sunlit
Object was in daylight at epoch
Visualization orbit readout
Latitude
Unknown
Longitude
Unknown
Altitude
Unknown
Speed
Unknown
Apparent Right ascension
Unknown
Apparent Declination
Unknown
Sunlit
N/A
Visualization observer readout
Local Sidereal Time
20:14:35
Azimuth
Unknown
Elevation
Unknown
Doppler factor
Unknown
Orbital elements
Apogee altitude
777.93 km
Perigee altitude
768.609 km
Semi-major axis
7,151.407 km
Eccentricity
0.00065
Inclination
82.8951°
RAAN
111.3969°
Arg. of periapsis
218.0769°
True anomaly
142.04205°
Mean anomaly
141.9961°
Eccentric anomaly
142.01908°
Mean motion
3.58886 °/min
Orbital period
100.31 mins
BSTAR
0.002176
Loading maneuver chart data...
Computing Atmospheric mass density...

Documentation

Showing up to 5 results
|